Location: Absher
(46.5583°N, 107.9840°W)
Time: 08:12:17
(UTC+00:00)

TIGRISAT - Pass Details

Date: 02 April 2023
Orbit: 599 x 682 km, 97.7° (Epoch: 28 May)

Event Time Altitude Azimuth Distance (km) Brightness Sun altitude
Rises 02:13:28 0° 0° (N) 3,057 ? -6.3°
Reaches altitude 10° 02:16:10 10° 344° (NNW) 2,139 ? -6.8°
Maximum altitude 02:19:36 21° 297° (WNW) 1,541 ? -7.4°
Drops below altitude 10° 02:23:01 10° 250° (WSW) 2,122 ? -7.9°
Sets 02:25:42 0° 234° (SW) 3,025 ? -8.4°
